Miscellaneous Local Product
Issued by NWS Hastings, NE

Home | Current Version | Previous Version | Graphics & Text | Print | Product List | Glossary On
Versions: 1 2 3 4 5 6 7 8 9 10 11 12 13 14 15 16 17 18 19 20 21 22 23 24 25 26 27 28 29 30 31 32 33 34 35 36 37 38 39 40 41 42 43 44 45 46 47 48 49 50
179
AXUS43 KGID 130602
MISGRI

GID CWA HOURLY WEATHER ROUNDUP
NATIONAL WEATHER SERVICE HASTINGS NE
1200 AM CST SAT FEB 13 2016

NOTE: "FAIR" INDICATES FEW OR NO CLOUDS BELOW 12,000 FEET WITH NO
SIGNIFICANT WEATHER AND/OR OBSTRUCTIONS TO VISIBILITY.

...SOUTH CENTRAL NEBRASKA...

CITY           SKY/WX    TMP DP  RH WIND       PRES   REMARKS
GRAND ISLAND   CLOUDY    17  10  74 E9        30.55F WCI   6
HASTINGS       CLOUDY    18  11  74 E9        30.52F WCI   7
KEARNEY        CLOUDY    19  14  79 SE10      30.51S WCI   8
ORD            CLOUDY    18  12  77 SE8       30.51F WCI   8
YORK           CLOUDY    16   9  73 E6        30.58F WCI   7
AURORA         CLOUDY    17  11  77 E7        30.55F WCI   8
LEXINGTON      CLOUDY    23  17  77 SE12      30.47F WCI  12
HOLDREGE       CLOUDY    21  17  85 E10       30.49R WCI  10
HEBRON         CLOUDY    20  13  76 NE10      30.58R WCI   8

...NEBRASKA PANHANDLE...

CITY           SKY/WX    TMP DP  RH WIND       PRES   REMARKS
CHADRON        CLOUDY    34  29  82 S13       30.24F WCI  25
ALLIANCE       CLOUDY    31  29  92 S16       30.25F WCI  20
SCOTTSBLUFF    CLOUDY    33  30  88 SE10      30.24F WCI  25
SIDNEY         CLOUDY    30  29  96 S17       30.27F FOG     WCI  18

...WESTERN AND NORTH CENTRAL NEBRASKA...

CITY           SKY/WX    TMP DP  RH WIND       PRES   REMARKS
VALENTINE      CLOUDY    23  16  74 SE13      30.41F WCI  11
AINSWORTH      CLOUDY    20  13  75 SE12      30.43F WCI   8
ONEILL         CLOUDY    15   9  76 E7        30.52F WCI   5
BROKEN BOW     CLOUDY    20  16  84 SE10      30.46S WCI   9
IMPERIAL       CLOUDY    29  28  96 SE15      30.36F WCI  18
NORTH PLATTE   CLOUDY    25  21  85 SE9       30.41F WCI  15
MCCOOK         FOG       26  25  96 SE12      30.44F VSB 1/4 WCI  16

...EASTERN NEBRASKA...

CITY           SKY/WX    TMP DP  RH WIND       PRES   REMARKS
NORFOLK        CLOUDY    13   3  64 NE6       30.58S WCI   4
SO SIOUX CITY  CLOUDY     8  -6  52 NE8       30.64S WCI  -4
TEKAMAH        PTCLDY     9   0  67 N9        30.66S WCI  -4
COLUMBUS       CLOUDY    16   0  48 NE6       30.60R WCI   7
ALBION         CLOUDY    15   6  69 E5        30.56S WCI   7
OMAHA EPPLEY   CLOUDY    13   1  59 N9        30.66R WCI   1
OFFUTT AFB     CLOUDY    14   2  60 N9        30.63S WCI   2
MILLARD        CLOUDY    14   2  57 N3        30.63F
LINCOLN        CLOUDY    15   4  61 NE9       30.63S WCI   3
NEBRASKA CITY  CLOUDY    15   0  51 NE13      30.61F WCI   0
BEATRICE       CLOUDY    17   9  69 NE7       30.60S WCI   8
FALLS CITY     CLOUDY    16   3  56 N9        30.62S WCI   4

...NORTHERN KANSAS...

CITY           SKY/WX    TMP DP  RH WIND       PRES   REMARKS
GOODLAND       CLOUDY    28  27  96 S20       30.36F WCI  15
HILL CITY      CLOUDY    27  24  89 E10       30.48S WCI  17
NORTON         CLOUDY    25  18  74 E9        30.46S WCI  15
PHILLIPSBURG   CLOUDY    27  19  74 E8        30.51F WCI  18
SMITH CENTER   CLOUDY    21  18  86 E9        30.53S WCI  11
BELOIT         MOCLDY    25  18  74 E7        30.55S WCI  17
HAYS           CLOUDY    27  14  59 E10       30.48S WCI  17
RUSSELL        CLOUDY    26  19  74 E10       30.49F WCI  16
CONCORDIA      CLOUDY    23  13  65 NE9       30.56S WCI  13
SALINA         CLOUDY    28  13  53 NE9       30.56S WCI  19
TOPEKA         CLOUDY    22   4  46 N8        30.61F WCI  12



USA.gov is the U.S. government's official web portal to all federal, state and local government web resources and services.